2023/01/21 23:31:04+0000,-36.05,-44.44,-30.86,-48.25,-45.03,-49.69
2023/01/21 23:31:56+0000,-35.77,-43.48,-31.04,-48.56,-46.03,-17.36
2023/01/21 23:32:48+0000,-36.08,-42.93,-30.62,-47.10,-45.81,-50.22
2023/01/21 23:33:40+0000,-36.01,-43.40,-30.92,-48.01,-46.01,-48.32
2023/01/21 23:34:32+0000,-36.62,-44.17,-30.59,-49.11,-43.89,-50.09
2023/01/21 23:35:24+0000,-36.63,-43.66,-30.99,-48.88,-45.08,-13.69
2023/01/21 23:36:16+0000,-36.53,-44.29,-30.69,-47.09,-44.96,-48.49
2023/01/21 23:37:08+0000,-35.35,-44.66,-30.95,-48.00,-44.60,-45.71
2023/01/21 23:38:00+0000,-36.30,-44.69,-30.14,-48.63,-45.03,-49.98
2023/01/21 23:38:52+0000,-36.42,-43.90,-30.83,-48.33,-44.70,-49.51
2023/01/21 23:39:44+0000,-35.42,-43.24,-30.68,-47.28,-44.82,-46.81
2023/01/21 23:40:37+0000,-36.25,-44.84,-30.52,-49.11,-44.57,-46.74
2023/01/21 23:41:36+0000,-36.82,-44.84,-31.35,-47.71,-44.62,-46.15
2023/01/21 23:42:28+0000,-36.55,-45.07,-31.00,-48.97,-44.07,-26.50
2023/01/21 23:43:20+0000,-37.50,-44.78,-30.27,-49.25,-44.83,-26.53
2023/01/21 23:44:12+0000,-36.68,-43.85,-30.46,-48.26,-45.77,-49.19
2023/01/21 23:45:04+0000,-37.11,-44.06,-30.41,-40.05,-43.41,-45.00
2023/01/21 23:45:56+0000,-35.08,-45.46,-30.91,-41.63,-45.60,-26.88
2023/01/21 23:46:48+0000,-35.79,-44.65,-31.21,-40.44,-44.92,-50.36
2023/01/21 23:47:40+0000,-35.11,-44.10,-29.22,-40.08,-45.00,-45.45
2023/01/21 23:48:32+0000,-35.04,-43.17,-30.48,-40.00,-44.45,-50.56
2023/01/21 23:49:24+0000,-34.90,-44.08,-31.40,-39.67,-44.88,-26.61
2023/01/21 23:50:17+0000,-35.41,-44.43,-31.04,-40.32,-44.71,-50.45
2023/01/21 23:51:32+0000,-34.34,-44.25,-28.94,-39.95,-44.65,-50.34
2023/01/21 23:52:24+0000,-34.84,-43.37,-31.42,-39.39,-44.26,-26.65
2023/01/21 23:53:16+0000,-35.46,-45.10,-31.21,-40.14,-44.44,-46.98
2023/01/21 23:54:08+0000,-34.86,-43.84,-30.52,-40.22,-43.31,-43.32
2023/01/21 23:55:00+0000,-34.89,-44.44,-31.07,-39.10,-43.43,-26.70
2023/01/21 23:55:52+0000,-35.43,-43.02,-30.65,-39.54,-44.22,-26.80
2023/01/21 23:56:44+0000,-35.96,-43.04,-31.16,-39.26,-44.81,-46.80
2023/01/21 23:57:36+0000,-34.95,-43.57,-30.27,-38.81,-44.09,-48.48
2023/01/21 23:58:28+0000,-34.10,-43.91,-31.11,-39.09,-44.60,-26.73
2023/01/21 23:59:20+0000,-34.75,-42.57,-30.30,-39.45,-44.93,-49.98
2023/01/22 00:00:13+0000,-34.53,-43.68,-30.87,-38.08,-42.89,-49.85
2023/01/22 00:01:34+0000,-35.40,-43.21,-30.25,-39.66,-43.65,-48.96
2023/01/22 00:02:26+0000,-34.55,-43.84,-30.40,-38.74,-44.10,-49.36
2023/01/22 00:03:18+0000,-34.91,-42.69,-30.89,-39.43,-43.83,-49.46
2023/01/22 00:04:10+0000,-35.06,-44.22,-30.68,-37.92,-45.70,-46.16
2023/01/22 00:05:03+0000,-35.54,-43.42,-30.54,-39.16,-41.88,-46.01
2023/01/22 00:05:55+0000,-35.12,-42.91,-31.05,-39.09,-45.84,-26.81
2023/01/22 00:06:47+0000,-34.59,-42.91,-30.44,-38.80,-44.26,-50.23
2023/01/22 00:07:39+0000,-35.43,-42.22,-30.79,-39.32,-45.08,-48.46
2023/01/22 00:08:31+0000,-35.52,-43.40,-30.21,-39.25,-43.78,-49.51
2023/01/22 00:09:23+0000,-35.28,-42.19,-30.37,-38.76,-44.78,-26.54
2023/01/22 00:10:15+0000,-35.00,-42.46,-30.51,-39.09,-43.93,-50.22
2023/01/22 00:11:14+0000,-35.84,-43.73,-31.26,-38.95,-43.95,-48.70
2023/01/22 00:12:06+0000,-34.71,-43.54,-30.27,-38.56,-43.73,-48.10
2023/01/22 00:12:58+0000,-34.52,-43.48,-31.09,-38.13,-42.21,-27.09
2023/01/22 00:13:50+0000,-34.23,-42.78,-31.05,-38.67,-43.50,-26.75
2023/01/22 00:14:42+0000,-34.62,-43.54,-30.92,-39.05,-43.51,-47.48
2023/01/22 00:15:34+0000,-34.12,-42.37,-30.88,-38.10,-42.00,-46.35
2023/01/22 00:16:26+0000,-34.64,-41.67,-30.32,-37.94,-45.04,-49.22
2023/01/22 00:17:18+0000,-35.14,-41.45,-30.57,-38.03,-43.76,-49.61
2023/01/22 00:18:10+0000,-34.59,-42.02,-30.56,-38.44,-44.28,-45.27
2023/01/22 00:19:02+0000,-34.65,-42.68,-30.20,-38.07,-43.57,-49.81
2023/01/22 00:19:54+0000,-34.76,-41.79,-30.85,-37.97,-44.27,-48.35
2023/01/22 00:20:46+0000,-34.65,-41.88,-30.31,-37.59,-43.94,-50.02
2023/01/22 00:22:13+0000,-35.07,-42.24,-31.05,-37.89,-43.59,-46.14
2023/01/22 00:23:05+0000,-34.96,-41.46,-30.55,-37.30,-44.33,-45.70
2023/01/22 00:23:57+0000,-35.45,-42.01,-30.34,-37.54,-44.61,-48.86
2023/01/22 00:24:49+0000,-34.68,-42.18,-30.85,-37.69,-44.27,-49.12
2023/01/22 00:25:41+0000,-34.96,-40.83,-30.72,-37.77,-45.17,-46.27
2023/01/22 00:26:33+0000,-33.55,-42.43,-30.43,-38.15,-44.32,-46.91
2023/01/22 00:27:25+0000,-34.45,-41.92,-29.86,-36.66,-44.93,-48.42
2023/01/22 00:28:17+0000,-34.65,-42.05,-30.35,-37.84,-44.12,-49.71
2023/01/22 00:29:10+0000,-34.84,-42.47,-30.06,-37.73,-45.72,-45.13
2023/01/22 00:30:02+0000,-34.49,-41.66,-30.58,-37.58,-43.73,-50.03
2023/01/22 00:31:01+0000,-34.16,-41.78,-30.40,-37.80,-44.59,-49.02
2023/01/22 00:31:53+0000,-35.14,-41.92,-30.50,-36.83,-39.87,-26.87
2023/01/22 00:32:45+0000,-34.71,-42.07,-31.03,-38.24,-43.93,-48.19
2023/01/22 00:33:37+0000,-33.67,-41.63,-30.59,-37.82,-43.82,-46.31
2023/01/22 00:34:29+0000,-34.37,-42.27,-30.74,-38.70,-43.24,-26.79
2023/01/22 00:35:21+0000,-34.17,-42.28,-30.58,-37.39,-42.30,-26.79
2023/01/22 00:36:13+0000,-33.86,-41.76,-30.43,-37.95,-43.64,-46.90
2023/01/22 00:37:05+0000,-34.86,-41.65,-30.43,-37.93,-44.22,-48.29
2023/01/22 00:37:57+0000,-33.98,-41.10,-30.48,-36.82,-43.60,-48.34
2023/01/22 00:38:49+0000,-34.51,-42.03,-30.39,-37.12,-42.75,-15.52
2023/01/22 00:39:42+0000,-34.66,-41.92,-30.13,-37.53,-44.58,-48.20
2023/01/22 00:40:34+0000,-34.50,-40.91,-30.81,-37.69,-43.41,-49.02
2023/01/22 00:41:33+0000,-34.57,-41.39,-30.24,-37.20,-43.24,-50.29
2023/01/22 00:42:25+0000,-34.41,-42.04,-30.26,-37.55,-44.09,-15.99
2023/01/22 00:43:17+0000,-33.97,-41.58,-30.52,-36.92,-44.12,-49.57
2023/01/22 00:44:09+0000,-33.60,-41.38,-31.13,-36.47,-40.73,-48.73
2023/01/22 00:45:01+0000,-34.70,-41.71,-31.17,-38.05,-44.06,-49.98
2023/01/22 00:45:53+0000,-35.05,-41.94,-30.36,-37.39,-41.86,-49.15
2023/01/22 00:46:45+0000,-35.39,-42.44,-30.20,-37.33,-42.62,-48.95
2023/01/22 00:47:37+0000,-34.18,-41.48,-30.89,-38.62,-43.41,-49.28
2023/01/22 00:48:30+0000,-34.59,-42.31,-30.01,-36.84,-43.54,-49.84
2023/01/22 00:49:22+0000,-34.42,-41.64,-30.37,-36.92,-42.49,-49.60
2023/01/22 00:50:15+0000,-34.23,-42.59,-30.34,-37.94,-44.24,-49.49
2023/01/22 00:51:18+0000,-34.85,-41.56,-30.28,-38.15,-40.09,-49.93
2023/01/22 00:52:10+0000,-34.50,-41.62,-30.08,-38.03,-43.96,-49.91
2023/01/22 00:53:02+0000,-34.88,-42.22,-30.54,-37.26,-43.96,-49.83
2023/01/22 00:53:54+0000,-34.98,-40.89,-30.35,-38.05,-44.45,-49.97
2023/01/22 00:54:46+0000,-34.36,-42.27,-30.52,-37.79,-44.27,-49.84
2023/01/22 00:55:38+0000,-34.95,-42.22,-30.46,-36.60,-42.95,-50.35
2023/01/22 00:56:30+0000,-34.27,-41.53,-30.90,-35.98,-44.59,-49.90
2023/01/22 00:57:22+0000,-34.39,-41.33,-30.15,-37.04,-43.43,-50.24
2023/01/22 00:58:14+0000,-34.37,-42.55,-30.26,-37.71,-44.37,-49.70
2023/01/22 00:59:06+0000,-34.46,-41.57,-29.94,-37.94,-43.60,-49.70
2023/01/22 00:59:59+0000,-34.08,-41.14,-30.71,-37.19,-44.30,-49.76
2023/01/22 01:00:51+0000,-34.87,-41.74,-30.13,-37.02,-43.85,-50.94
2023/01/22 01:01:51+0000,-34.64,-41.89,-30.21,-34.67,-44.26,-50.30
2023/01/22 01:02:43+0000,-34.26,-41.08,-30.23,-35.20,-44.41,-50.03
2023/01/22 01:03:35+0000,-34.09,-42.21,-30.22,-35.54,-44.60,-50.88
2023/01/22 01:04:27+0000,-35.13,-42.04,-30.30,-35.10,-44.53,-50.43
2023/01/22 01:05:19+0000,-34.69,-40.91,-30.09,-37.98,-44.69,-50.03
2023/01/22 01:06:11+0000,-34.33,-41.42,-30.77,-37.81,-44.36,-50.73
2023/01/22 01:07:03+0000,-35.45,-41.13,-30.15,-38.84,-43.76,-50.44
2023/01/22 01:07:55+0000,-32.40,-41.97,-30.82,-38.06,-44.38,-51.01
2023/01/22 01:08:47+0000,-33.00,-42.47,-29.90,-36.69,-44.33,-50.16
2023/01/22 01:09:40+0000,-34.16,-41.73,-30.14,-37.31,-44.86,-50.18
2023/01/22 01:10:32+0000,-34.66,-42.55,-30.00,-38.50,-45.10,-50.02
2023/01/22 01:11:31+0000,-34.18,-41.98,-30.39,-38.49,-44.51,-50.01
2023/01/22 01:12:23+0000,-34.13,-41.74,-30.39,-37.76,-44.61,-50.13
2023/01/22 01:13:15+0000,-34.33,-42.71,-30.76,-36.74,-44.77,-49.21
2023/01/22 01:14:07+0000,-34.50,-41.37,-30.50,-37.15,-44.81,-50.14
2023/01/22 01:14:59+0000,-34.98,-41.65,-30.01,-37.62,-44.84,-49.80
2023/01/22 01:15:51+0000,-34.35,-41.56,-31.02,-37.87,-44.35,-50.60
2023/01/22 01:16:43+0000,-34.39,-41.63,-30.63,-36.81,-45.27,-50.25
2023/01/22 01:17:35+0000,-34.19,-42.94,-30.53,-36.92,-44.57,-50.08
2023/01/22 01:18:27+0000,-34.80,-41.51,-30.74,-37.23,-44.23,-50.72
2023/01/22 01:19:19+0000,-34.60,-40.72,-30.83,-38.00,-44.60,-50.60
2023/01/22 01:20:12+0000,-34.82,-42.70,-31.35,-36.57,-44.68,-50.39
2023/01/22 01:21:11+0000,-34.81,-41.93,-30.67,-37.49,-44.37,-50.75
2023/01/22 01:22:03+0000,-35.04,-41.36,-30.20,-38.59,-43.67,-50.49
2023/01/22 01:22:55+0000,-34.98,-41.51,-30.23,-37.41,-44.87,-50.66
2023/01/22 01:23:47+0000,-34.52,-42.37,-30.44,-37.83,-45.23,-50.11
2023/01/22 01:24:39+0000,-35.47,-42.40,-31.36,-37.49,-43.63,-48.66
2023/01/22 01:25:31+0000,-35.04,-42.02,-31.13,-37.61,-44.65,-49.38
2023/01/22 01:26:24+0000,-33.81,-42.20,-30.49,-36.30,-45.62,-48.47
2023/01/22 01:27:16+0000,-34.02,-42.48,-31.01,-40.56,-45.39,-51.33
2023/01/22 01:28:08+0000,-35.62,-43.13,-31.08,-38.35,-44.92,-51.11
2023/01/22 01:29:00+0000,-35.01,-42.85,-31.59,-38.79,-45.29,-52.08
2023/01/22 01:29:52+0000,-34.56,-42.98,-30.82,-37.65,-45.24,-51.97
2023/01/22 01:30:44+0000,-34.94,-42.26,-30.94,-38.55,-45.83,-51.33
2023/01/22 01:31:43+0000,-35.11,-42.63,-31.79,-37.17,-45.46,-51.78
2023/01/22 01:32:35+0000,-34.69,-42.52,-30.52,-38.38,-43.51,-51.95
2023/01/22 01:33:27+0000,-34.10,-42.96,-31.47,-37.29,-43.74,-51.74
2023/01/22 01:34:19+0000,-34.52,-43.13,-30.72,-38.03,-44.99,-51.72
2023/01/22 01:35:11+0000,-34.92,-42.22,-30.95,-36.72,-45.81,-52.17
2023/01/22 01:36:04+0000,-34.91,-42.66,-30.22,-37.14,-44.97,-52.05
2023/01/22 01:36:56+0000,-34.08,-41.72,-30.28,-36.39,-45.21,-52.36
2023/01/22 01:37:48+0000,-34.34,-42.88,-30.56,-35.73,-45.52,-52.08
2023/01/22 01:38:40+0000,-35.22,-42.95,-30.27,-36.66,-44.28,-52.20
2023/01/22 01:39:32+0000,-34.48,-42.16,-30.66,-36.67,-44.85,-51.71
2023/01/22 01:40:24+0000,-34.77,-42.45,-29.51,-36.70,-43.94,-51.72
2023/01/22 01:41:23+0000,-34.64,-42.11,-30.70,-36.55,-45.63,-51.54
2023/01/22 01:42:15+0000,-34.14,-42.45,-30.32,-36.78,-44.94,-51.59
2023/01/22 01:43:07+0000,-34.43,-42.54,-31.00,-37.42,-43.42,-52.01
2023/01/22 01:43:59+0000,-34.43,-42.65,-31.00,-36.41,-42.72,-51.71
2023/01/22 01:44:51+0000,-34.85,-42.66,-30.33,-35.25,-44.65,-51.77
2023/01/22 01:45:44+0000,-34.67,-40.90,-30.72,-35.37,-45.02,-51.76
2023/01/22 01:46:36+0000,-34.95,-42.96,-29.97,-36.21,-45.47,-52.28
2023/01/22 01:47:28+0000,-33.62,-42.71,-30.52,-35.43,-44.85,-52.34
2023/01/22 01:48:20+0000,-34.18,-41.82,-31.25,-36.53,-44.89,-52.09
2023/01/22 01:49:12+0000,-34.81,-42.98,-30.39,-36.63,-45.19,-52.60
2023/01/22 01:50:04+0000,-34.59,-41.59,-29.80,-35.43,-45.14,-51.86
2023/01/22 01:51:03+0000,-34.85,-41.73,-29.73,-35.45,-44.67,-52.31
2023/01/22 01:51:55+0000,-34.51,-42.65,-30.39,-35.13,-44.68,-52.05
2023/01/22 01:52:47+0000,-34.65,-42.29,-30.72,-34.70,-44.44,-52.51
2023/01/22 01:53:39+0000,-33.80,-42.93,-30.48,-34.83,-44.29,-51.93
2023/01/22 01:54:31+0000,-33.92,-43.32,-29.92,-34.41,-44.91,-51.62
2023/01/22 01:55:24+0000,-34.30,-43.86,-30.53,-34.67,-44.27,-51.62
2023/01/22 01:56:16+0000,-34.32,-42.17,-30.24,-34.88,-45.49,-52.52
2023/01/22 01:57:08+0000,-34.30,-43.64,-29.57,-35.00,-44.99,-52.19
2023/01/22 01:58:00+0000,-34.24,-44.38,-31.01,-34.74,-44.86,-49.06
2023/01/22 01:58:52+0000,-34.35,-42.65,-30.90,-34.91,-43.75,-50.85
2023/01/22 01:59:44+0000,-34.00,-43.30,-30.84,-35.13,-44.71,-51.28
2023/01/22 02:00:36+0000,-33.88,-42.64,-30.27,-35.64,-44.23,-50.77
2023/01/22 02:01:36+0000,-34.62,-42.94,-30.64,-34.35,-44.33,-51.24
2023/01/22 02:02:28+0000,-35.38,-43.22,-30.85,-35.19,-43.54,-50.58
2023/01/22 02:03:20+0000,-35.20,-44.58,-30.83,-35.32,-44.40,-51.01
2023/01/22 02:04:12+0000,-35.07,-43.20,-30.59,-39.20,-45.09,-49.89
2023/01/22 02:05:04+0000,-35.13,-43.83,-30.95,-39.41,-44.45,-50.17
2023/01/22 02:05:57+0000,-35.31,-45.00,-31.05,-39.68,-44.71,-49.37
2023/01/22 02:06:49+0000,-35.43,-43.68,-31.01,-40.00,-44.97,-50.45
2023/01/22 02:07:41+0000,-34.89,-42.08,-30.33,-39.47,-44.92,-50.47
2023/01/22 02:08:33+0000,-34.62,-42.41,-31.32,-39.51,-45.35,-50.24
2023/01/22 02:09:25+0000,-35.20,-43.35,-31.04,-39.31,-44.98,-50.53
2023/01/22 02:10:17+0000,-34.95,-42.76,-30.95,-39.66,-45.26,-50.17
2023/01/22 02:11:16+0000,-35.30,-42.86,-31.90,-38.94,-45.01,-49.92
2023/01/22 02:12:08+0000,-35.75,-42.58,-30.22,-37.78,-45.24,-50.40
2023/01/22 02:13:00+0000,-34.47,-42.00,-31.20,-38.48,-44.60,-50.56
2023/01/22 02:13:52+0000,-35.75,-43.23,-30.75,-38.62,-45.51,-50.44
2023/01/22 02:14:44+0000,-35.04,-42.11,-31.09,-38.19,-45.54,-50.21
2023/01/22 02:15:37+0000,-35.36,-44.39,-31.23,-37.42,-45.07,-51.28
2023/01/22 02:16:29+0000,-34.25,-41.75,-30.71,-36.80,-45.12,-50.92
2023/01/22 02:17:21+0000,-35.76,-43.95,-30.73,-39.60,-45.33,-49.34
2023/01/22 02:18:13+0000,-35.08,-43.24,-31.25,-38.29,-44.76,-51.69
2023/01/22 02:19:05+0000,-34.49,-41.83,-30.77,-38.75,-44.90,-51.39
2023/01/22 02:19:57+0000,-35.11,-42.38,-30.55,-38.20,-44.87,-51.03
2023/01/22 02:20:49+0000,-35.05,-42.50,-31.00,-39.32,-45.16,-50.94
2023/01/22 02:21:48+0000,-34.43,-41.52,-30.82,-39.40,-44.78,-50.89
2023/01/22 02:22:40+0000,-35.35,-42.28,-30.38,-38.83,-44.83,-51.02
2023/01/22 02:23:32+0000,-35.71,-44.03,-31.16,-38.66,-45.09,-51.22
2023/01/22 02:24:24+0000,-35.38,-43.35,-30.79,-38.80,-45.06,-50.91
2023/01/22 02:25:16+0000,-35.02,-40.86,-31.04,-38.92,-45.18,-51.38
2023/01/22 02:26:08+0000,-35.65,-41.24,-30.71,-39.28,-44.55,-50.47
2023/01/22 02:27:01+0000,-34.09,-43.18,-30.32,-38.01,-45.05,-50.94
2023/01/22 02:27:53+0000,-34.25,-42.11,-30.40,-38.00,-44.30,-51.38
2023/01/22 02:28:45+0000,-33.21,-42.78,-30.53,-37.79,-45.43,-51.11
2023/01/22 02:29:37+0000,-34.34,-44.43,-29.64,-38.22,-45.22,-50.97
2023/01/22 02:30:29+0000,-35.06,-41.88,-30.55,-38.45,-45.65,-51.44
2023/01/22 02:31:28+0000,-34.78,-43.33,-30.73,-37.31,-44.79,-51.06
2023/01/22 02:32:20+0000,-34.87,-43.00,-30.97,-38.81,-45.37,-51.08
2023/01/22 02:33:12+0000,-35.47,-43.86,-30.80,-38.87,-45.08,-51.08
2023/01/22 02:34:04+0000,-35.15,-44.50,-30.99,-39.19,-44.83,-50.99
2023/01/22 02:34:56+0000,-35.60,-43.95,-31.07,-38.44,-45.05,-51.15
2023/01/22 02:35:48+0000,-34.93,-41.30,-30.15,-38.74,-45.20,-51.04
2023/01/22 02:36:40+0000,-35.66,-43.39,-30.44,-39.18,-45.05,-51.21
2023/01/22 02:37:33+0000,-33.86,-43.69,-30.68,-38.59,-45.86,-51.12
2023/01/22 02:38:25+0000,-34.42,-42.35,-30.32,-38.02,-45.20,-51.43
2023/01/22 02:39:17+0000,-34.14,-43.36,-30.09,-38.44,-44.78,-51.12
2023/01/22 02:40:09+0000,-34.29,-41.57,-31.10,-38.43,-45.62,-51.10
2023/01/22 02:41:09+0000,-36.37,-43.68,-30.85,-38.72,-44.73,-51.18
2023/01/22 02:42:01+0000,-34.42,-44.23,-30.60,-38.49,-45.37,-51.54
2023/01/22 02:42:53+0000,-35.16,-44.34,-31.07,-39.58,-45.21,-51.80
2023/01/22 02:43:45+0000,-33.98,-42.58,-29.90,-38.48,-44.86,-51.43
2023/01/22 02:44:37+0000,-35.54,-43.91,-30.24,-39.47,-45.17,-51.23
2023/01/22 02:45:29+0000,-35.21,-43.33,-31.13,-37.45,-45.54,-51.61
2023/01/22 02:46:21+0000,-34.75,-43.17,-30.82,-40.06,-45.13,-50.23
2023/01/22 02:47:13+0000,-35.00,-43.24,-30.94,-38.63,-45.36,-51.77
2023/01/22 02:48:05+0000,-34.54,-44.14,-30.45,-39.41,-45.81,-51.36
2023/01/22 02:48:57+0000,-34.42,-43.25,-30.93,-37.81,-45.48,-50.39
2023/01/22 02:49:49+0000,-34.94,-42.95,-30.53,-39.41,-45.34,-50.87
2023/01/22 02:50:41+0000,-35.24,-43.77,-31.29,-39.75,-44.49,-51.30
2023/01/22 02:51:40+0000,-34.99,-41.66,-30.29,-39.36,-44.88,-51.41
2023/01/22 02:52:33+0000,-34.10,-43.23,-30.63,-38.55,-45.47,-50.88
2023/01/22 02:53:25+0000,-33.72,-42.52,-30.43,-36.80,-45.03,-50.80
2023/01/22 02:54:17+0000,-33.87,-42.74,-29.93,-38.86,-45.33,-51.31
2023/01/22 02:55:09+0000,-35.69,-43.23,-31.61,-40.21,-44.59,-51.59
2023/01/22 02:56:01+0000,-35.88,-44.07,-31.16,-38.49,-45.24,-51.24
2023/01/22 02:56:53+0000,-35.78,-45.16,-31.10,-37.43,-45.45,-51.09
2023/01/22 02:57:45+0000,-35.57,-43.32,-30.87,-39.40,-44.99,-51.66
2023/01/22 02:58:37+0000,-35.55,-44.00,-31.21,-39.97,-45.69,-51.01
2023/01/22 02:59:29+0000,-34.81,-43.31,-31.31,-38.62,-45.43,-51.69
2023/01/22 03:00:21+0000,-34.24,-43.85,-30.91,-39.83,-45.72,-50.97
2023/01/22 03:01:21+0000,-35.45,-44.04,-30.66,-37.43,-46.28,-50.93
2023/01/22 03:02:13+0000,-33.69,-42.03,-30.38,-39.00,-45.41,-50.53
2023/01/22 03:03:05+0000,-34.36,-44.21,-30.66,-39.31,-44.93,-50.39
2023/01/22 03:03:57+0000,-35.28,-43.47,-31.21,-39.23,-45.45,-50.53
2023/01/22 03:04:49+0000,-33.93,-43.49,-30.87,-39.50,-44.72,-50.77
2023/01/22 03:05:41+0000,-33.94,-43.00,-31.04,-40.19,-44.70,-51.07
2023/01/22 03:06:33+0000,-35.92,-43.95,-31.04,-39.82,-44.93,-50.90
2023/01/22 03:07:26+0000,-35.49,-44.22,-30.92,-39.51,-45.15,-50.62
2023/01/22 03:08:18+0000,-34.71,-43.64,-31.36,-39.71,-43.95,-50.54
2023/01/22 03:09:10+0000,-35.52,-43.20,-31.24,-39.49,-44.48,-50.26
2023/01/22 03:10:02+0000,-34.73,-44.84,-31.06,-38.87,-44.59,-50.13
2023/01/22 03:11:02+0000,-35.16,-43.63,-31.13,-39.90,-44.69,-50.48
2023/01/22 03:11:54+0000,-34.98,-44.57,-31.42,-39.69,-44.34,-50.73
2023/01/22 03:12:46+0000,-34.79,-43.43,-31.09,-39.66,-44.50,-50.08
2023/01/22 03:13:38+0000,-33.99,-42.02,-30.68,-40.99,-44.55,-50.49
2023/01/22 03:14:30+0000,-34.97,-44.66,-30.84,-39.85,-44.57,-50.56
2023/01/22 03:15:22+0000,-35.63,-45.13,-30.95,-40.35,-44.70,-50.91
2023/01/22 03:16:14+0000,-34.24,-42.96,-30.88,-40.38,-44.91,-49.93
2023/01/22 03:17:06+0000,-35.14,-44.66,-31.82,-39.01,-44.75,-50.56
2023/01/22 03:17:58+0000,-35.30,-43.50,-30.92,-40.12,-44.87,-50.25
2023/01/22 03:18:50+0000,-35.15,-43.31,-31.58,-40.18,-44.56,-50.29
2023/01/22 03:19:42+0000,-35.38,-44.35,-30.98,-39.95,-44.35,-50.63
2023/01/22 03:20:34+0000,-33.89,-43.11,-31.18,-40.00,-43.99,-51.14
2023/01/22 03:21:33+0000,-33.98,-44.23,-30.42,-40.81,-44.48,-50.30
2023/01/22 03:22:25+0000,-34.63,-43.24,-30.66,-39.64,-44.24,-50.51
2023/01/22 03:23:17+0000,-34.45,-42.09,-30.69,-38.69,-44.65,-49.83
2023/01/22 03:24:09+0000,-33.83,-43.10,-30.67,-38.66,-44.18,-50.59
2023/01/22 03:25:01+0000,-33.33,-44.27,-30.95,-41.57,-44.63,-50.30
2023/01/22 03:25:53+0000,-34.26,-42.05,-30.70,-41.57,-44.79,-50.58
2023/01/22 03:26:45+0000,-34.15,-42.61,-30.20,-40.43,-44.14,-50.46
2023/01/22 03:27:37+0000,-34.34,-43.89,-30.85,-41.27,-44.39,-51.15
2023/01/22 03:28:29+0000,-35.12,-43.85,-30.79,-42.52,-44.53,-50.35
2023/01/22 03:29:21+0000,-34.62,-44.64,-31.15,-41.99,-44.79,-51.15
2023/01/22 03:30:13+0000,-33.75,-43.83,-30.04,-41.80,-44.34,-49.59
2023/01/22 03:31:18+0000,-34.91,-44.18,-31.15,-42.50,-45.26,-49.94
2023/01/22 03:32:10+0000,-34.22,-44.35,-31.11,-42.52,-45.14,-50.19
2023/01/22 03:33:02+0000,-34.93,-44.52,-30.62,-42.58,-44.89,-50.71
2023/01/22 03:33:54+0000,-34.24,-43.22,-30.88,-41.29,-44.71,-50.20
2023/01/22 03:34:46+0000,-35.00,-44.12,-30.86,-42.28,-45.14,-50.65
2023/01/22 03:35:38+0000,-34.87,-44.73,-30.49,-41.54,-44.92,-50.75
2023/01/22 03:36:30+0000,-34.67,-44.02,-30.73,-42.26,-44.41,-50.98
2023/01/22 03:37:22+0000,-33.87,-43.94,-30.73,-41.62,-44.64,-50.59
2023/01/22 03:38:14+0000,-35.48,-43.65,-30.51,-41.83,-44.57,-49.99
2023/01/22 03:39:06+0000,-34.42,-45.08,-30.49,-42.23,-44.56,-50.02
2023/01/22 03:39:58+0000,-33.17,-43.25,-31.03,-42.88,-44.38,-50.19
2023/01/22 03:40:50+0000,-33.96,-43.80,-31.14,-42.50,-44.88,-50.17
2023/01/22 03:41:50+0000,-34.74,-44.03,-31.40,-42.56,-44.18,-50.80
2023/01/22 03:42:42+0000,-35.06,-43.58,-30.51,-42.07,-44.83,-50.49
2023/01/22 03:43:34+0000,-34.61,-43.61,-30.84,-42.64,-44.73,-51.52
2023/01/22 03:44:26+0000,-34.80,-43.92,-31.31,-42.69,-44.74,-49.48
2023/01/22 03:45:18+0000,-33.62,-43.38,-30.83,-42.55,-44.61,-50.80
2023/01/22 03:46:10+0000,-35.13,-43.83,-31.08,-42.59,-44.55,-50.67
2023/01/22 03:47:02+0000,-34.68,-44.58,-30.33,-42.06,-44.86,-50.13
2023/01/22 03:47:54+0000,-34.19,-45.32,-31.05,-41.59,-45.44,-51.27
2023/01/22 03:48:46+0000,-34.65,-43.35,-31.12,-42.59,-44.28,-50.10
2023/01/22 03:49:39+0000,-35.08,-44.10,-30.24,-42.27,-44.65,-49.72
2023/01/22 03:50:31+0000,-33.56,-42.58,-29.83,-41.60,-44.67,-50.07
2023/01/22 03:51:38+0000,-35.26,-45.14,-29.65,-42.33,-44.54,-49.75
2023/01/22 03:52:30+0000,-33.54,-43.60,-30.28,-40.75,-44.79,-49.96
2023/01/22 03:53:22+0000,-33.43,-45.01,-29.87,-40.75,-44.65,-50.22
2023/01/22 03:54:15+0000,-34.65,-43.48,-30.21,-41.98,-44.32,-49.78
2023/01/22 03:55:07+0000,-34.81,-44.13,-30.49,-42.29,-44.47,-49.95
2023/01/22 03:55:59+0000,-33.73,-43.27,-30.99,-41.52,-45.44,-49.52
2023/01/22 03:56:51+0000,-33.62,-43.62,-30.94,-41.12,-44.34,-50.19
2023/01/22 03:57:43+0000,-35.07,-44.06,-31.69,-42.59,-45.38,-49.90
2023/01/22 03:58:35+0000,-34.19,-44.43,-30.06,-42.33,-44.69,-48.67
2023/01/22 03:59:27+0000,-33.62,-43.84,-32.05,-42.46,-45.18,-49.81
2023/01/22 04:00:19+0000,-34.07,-43.54,-31.04,-43.62,-45.18,-52.18
2023/01/22 04:01:17+0000,-33.30,-43.51,-31.11,-39.49,-45.17,-51.82
2023/01/22 04:02:09+0000,-34.47,-43.52,-29.49,-39.40,-45.19,-51.90
2023/01/22 04:03:01+0000,-35.59,-43.97,-30.53,-39.93,-45.52,-51.73
2023/01/22 04:03:53+0000,-35.22,-42.94,-32.28,-40.20,-45.17,-51.65
2023/01/22 04:04:45+0000,-34.87,-43.15,-31.27,-39.64,-45.51,-51.77
2023/01/22 04:05:37+0000,-34.82,-44.02,-30.41,-39.95,-45.50,-51.63
2023/01/22 04:06:29+0000,-34.03,-43.31,-30.88,-39.78,-45.39,-51.43
2023/01/22 04:07:21+0000,-34.55,-44.18,-31.09,-40.04,-44.82,-51.36
2023/01/22 04:08:13+0000,-35.12,-43.66,-31.41,-40.81,-45.62,-51.65
2023/01/22 04:09:05+0000,-34.49,-44.09,-30.36,-39.52,-45.56,-51.88
2023/01/22 04:09:58+0000,-34.31,-43.05,-31.12,-39.61,-45.35,-51.80
2023/01/22 04:10:50+0000,-34.54,-44.24,-31.58,-40.52,-45.59,-51.79
2023/01/22 04:11:59+0000,-34.09,-43.04,-29.31,-39.80,-45.80,-51.77
2023/01/22 04:12:51+0000,-34.04,-43.60,-30.98,-39.41,-45.45,-51.85
2023/01/22 04:13:43+0000,-34.25,-43.41,-30.32,-40.19,-45.50,-52.21
2023/01/22 04:14:35+0000,-34.88,-44.06,-30.98,-40.65,-44.99,-51.39
2023/01/22 04:15:27+0000,-34.76,-43.66,-31.07,-39.97,-45.81,-51.72
2023/01/22 04:16:19+0000,-34.77,-44.31,-31.36,-40.12,-45.12,-52.46
2023/01/22 04:17:11+0000,-34.65,-43.97,-31.60,-40.67,-45.89,-52.09
2023/01/22 04:18:03+0000,-34.16,-43.93,-30.60,-40.05,-45.22,-51.62
2023/01/22 04:18:55+0000,-34.36,-42.94,-30.48,-40.33,-45.62,-51.32
2023/01/22 04:19:48+0000,-33.87,-43.37,-31.05,-40.22,-45.84,-51.93
2023/01/22 04:20:40+0000,-34.37,-43.80,-30.68,-39.88,-46.41,-51.79
2023/01/22 04:21:38+0000,-34.80,-44.35,-30.47,-39.52,-45.86,-51.32
2023/01/22 04:22:30+0000,-35.22,-44.48,-30.51,-39.64,-45.11,-51.36
2023/01/22 04:23:22+0000,-34.50,-43.82,-30.68,-39.21,-45.58,-52.21
2023/01/22 04:24:14+0000,-34.38,-43.26,-30.61,-40.26,-44.68,-51.75
2023/01/22 04:25:07+0000,-34.42,-44.16,-30.64,-40.53,-44.89,-50.80
2023/01/22 04:25:59+0000,-34.26,-42.03,-30.82,-39.48,-46.07,-51.68
2023/01/22 04:26:51+0000,-33.92,-42.98,-31.04,-39.56,-45.44,-51.33
2023/01/22 04:27:43+0000,-34.47,-42.20,-30.75,-39.89,-44.93,-52.65
2023/01/22 04:28:35+0000,-33.90,-43.11,-31.05,-39.76,-45.54,-51.66
2023/01/22 04:29:27+0000,-33.80,-43.02,-30.42,-39.29,-45.42,-51.59
2023/01/22 04:30:19+0000,-33.73,-44.38,-30.73,-39.72,-45.47,-51.37
2023/01/22 04:31:19+0000,-33.41,-43.11,-30.83,-39.65,-45.06,-52.05
2023/01/22 04:32:11+0000,-34.01,-43.60,-30.96,-39.98,-45.43,-51.97
2023/01/22 04:33:03+0000,-33.91,-42.86,-30.48,-39.78,-45.12,-51.78
2023/01/22 04:33:55+0000,-34.46,-43.62,-30.58,-39.51,-45.09,-51.26
2023/01/22 04:34:47+0000,-33.61,-43.33,-29.76,-39.33,-45.10,-52.36
2023/01/22 04:35:39+0000,-34.05,-43.52,-31.01,-39.36,-45.29,-51.31
2023/01/22 04:36:31+0000,-33.90,-42.46,-30.62,-40.28,-44.67,-51.34
2023/01/22 04:37:24+0000,-35.18,-43.14,-30.63,-40.36,-45.65,-51.95
2023/01/22 04:38:16+0000,-34.56,-43.46,-30.98,-39.92,-44.93,-51.44
2023/01/22 04:39:08+0000,-34.61,-44.73,-31.16,-40.78,-46.08,-52.17
2023/01/22 04:40:00+0000,-34.58,-43.48,-31.20,-40.99,-45.71,-51.48
2023/01/22 04:41:01+0000,-34.92,-41.02,-31.07,-40.53,-45.15,-50.44
2023/01/22 04:41:53+0000,-33.91,-45.14,-30.26,-40.52,-44.59,-50.27
2023/01/22 04:42:45+0000,-34.82,-43.99,-31.17,-40.13,-44.99,-50.53
2023/01/22 04:43:37+0000,-33.90,-44.33,-30.93,-40.08,-45.62,-50.98
2023/01/22 04:44:29+0000,-33.10,-41.64,-30.83,-39.72,-44.64,-52.00
2023/01/22 04:45:21+0000,-34.54,-43.17,-29.79,-37.38,-44.72,-52.82
2023/01/22 04:46:13+0000,-33.50,-43.30,-30.56,-37.00,-48.59,-51.54